Location: Austin
(30.3000°N, 97.7500°W)
Time: 22:52:59
(UTC-05:00)

ARIANE 6 FM1 Upper Stage - Pass Details

Date: 06 May 2026
Orbit: 526 x 602 km, 62.0° (Epoch: 13 May)

Event Time Altitude Azimuth Distance (km) Brightness Sun altitude
Rises 21:15:13 0° 345° (NNW) 2,659 6.8 -13.2°
Reaches altitude 10° 21:17:50 10° 2° (N) 1,767 5.6 -13.7°
Maximum altitude 21:20:53 21° 52° (NE) 1,223 4.2 -14.3°
Enters shadow 21:22:10 18° 79° (E) 1,338 4.1 -14.5°
